Wind_Speed
21 21 23 27 30 33 34 33 33 32 33 36 36 36 38 39 39 40 42 43 45 46 47 48 48 49 49 49 50 50 51 50 50 50 50 49 49 49 49 49 48 48 48 48
21 22 23 25 29 31 33 33 34 34 33 35 37 36 37 37 38 39 41 43 44 45 46 47 48 49 49 49 49 49 50 51 51 51 51 50 50 50 50 50 49 48 48 49
19 21 22 24 26 29 30 31 33 34 33 34 36 36 36 37 36 38 40 41 43 45 46 47 47 48 48 48 48 49 49 49 50 50 51 51 51 50 50 50 50 49 49 49
16 19 21 22 24 26 29 31 32 33 33 34 35 35 35 36 36 36 37 39 40 43 44 45 46 47 47 47 47 48 48 48 48 48 49 49 50 50 50 50 50 50 49 49
13 16 19 21 22 25 29 31 32 33 33 34 34 35 34 35 36 36 36 38 39 40 42 43 44 45 45 46 46 46 47 47 47 47 47 48 48 49 49 49 49 49 48 48
12 14 16 18 20 22 26 29 31 33 33 33 34 34 34 35 35 35 36 38 39 39 40 41 42 42 43 43 43 44 45 45 45 46 46 46 47 47 48 48 48 47 47 47
12 13 15 17 18 20 24 27 29 30 32 33 34 34 33 35 34 34 35 36 37 38 38 39 40 40 41 41 42 42 43 44 44 44 45 46 46 46 46 46 47 47 46 46
12 13 13 15 17 19 22 24 26 28 30 31 32 33 34 34 35 35 35 35 36 37 38 39 39 39 39 40 41 41 42 42 43 43 44 44 44 44 44 45 45 45 45 45
11 13 13 14 16 18 19 21 23 25 26 28 29 31 32 33 34 34 34 35 35 36 37 37 38 38 39 39 40 40 40 41 41 42 42 42 42 43 43 43 44 44 45 44
10 11 12 13 14 16 18 19 20 22 23 24 26 27 29 30 32 32 32 33 33 34 35 36 36 37 37 38 38 39 39 39 39 40 40 41 42 42 42 42 43 43 44 44
10 11 12 13 14 15 16 17 19 20 20 21 22 23 25 27 29 30 30 31 32 33 34 34 34 35 36 37 37 37 37 37 37 38 37 38 39 40 41 42 42 43 44 44
11 11 12 13 13 14 15 16 17 18 19 20 21 22 23 24 26 28 29 29 29 30 31 32 33 33 34 35 36 36 36 36 36 36 37 37 37 38 39 40 41 42 42 43
11 11 11 11 11 11 12 13 14 15 17 18 18 19 20 21 23 25 26 27 27 28 29 30 31 31 32 32 34 35 35 36 36 36 36 36 36 37 38 39 40 40 41 41
13 13 12 12 12 12 12 13 14 15 16 17 17 18 18 19 20 22 23 25 26 26 27 28 29 30 30 30 32 33 34 34 34 35 36 36 36 37 37 37 38 39 39 40
14 14 14 14 14 13 13 13 14 15 16 17 17 17 17 17 19 20 22 23 24 25 26 27 27 27 28 28 29 31 32 32 33 34 35 36 36 36 36 36 37 37 38 38
15 15 15 15 15 15 15 15 14 15 16 16 17 17 16 16 16 18 19 20 22 24 24 25 25 25 25 26 27 28 29 30 32 33 34 35 36 36 36 35 35 36 36 37
15 15 15 15 15 15 16 16 15 15 15 15 16 17 17 17 17 18 18 19 20 22 23 24 24 25 25 25 26 26 27 28 30 31 32 33 34 34 34 34 34 34 35 36
15 15 15 15 15 16 16 16 16 16 15 15 16 16 17 18 18 19 19 20 20 22 22 23 24 24 25 25 25 26 27 27 28 28 29 30 31 32 33 34 34 34 35 36
16 15 15 15 15 16 16 16 17 17 17 17 17 17 18 19 19 20 20 21 21 22 22 23 23 24 24 25 25 26 26 26 26 27 27 28 29 30 31 32 33 34 35 36
17 16 16 16 16 16 17 17 17 18 18 19 19 19 19 19 19 19 20 21 22 22 23 23 23 23 24 24 24 24 24 25 25 26 27 28 28 29 29 30 31 32 33 34
18 18 18 18 17 18 18 18 18 18 19 19 20 20 20 20 19 19 19 20 21 22 23 23 24 24 23 23 24 24 24 24 25 26 26 27 27 28 29 30 31 32 32 32
19 19 19 19 19 19 19 19 19 19 19 19 19 20 20 20 20 20 20 20 21 22 22 23 23 23 23 23 24 24 24 25 25 26 26 26 27 27 28 29 30 31 32 33
20 20 20 20 20 20 20 20 20 20 20 19 19 19 20 20 21 21 21 21 21 21 21 22 22 23 23 23 23 24 25 25 26 26 27 27 28 28 28 29 30 30 31 32
21 21 21 21 21 21 21 21 20 20 20 20 20 19 19 19 20 21 21 21 21 20 20 21 21 22 23 23 23 23 24 24 25 25 25 26 26 27 27 27 28 29 29 29
21 21 21 21 21 21 21 20 20 19 20 20 20 20 19 19 19 20 20 20 20 20 20 20 21 21 22 22 22 22 22 23 23 23 23 24 24 24 24 25 25 26 27 27
21 21 21 21 21 21 20 20 20 20 20 20 20 20 20 19 19 19 19 20 20 21 21 21 21 21 21 21 21 21 21 21 21 21 21 22 22 22 22 23 23 23 24 24
21 21 21 21 21 20 20 20 20 20 20 20 20 20 20 19 19 19 19 19 20 20 20 20 20 20 20 20 21 21 21 20 20 20 20 20 20 20 20 21 21 21 21 22
Wind_Direction
245 239 235 228 225 223 224 227 230 230 232 234 237 238 239 240 240 239 237 236 236 237 238 238 239 239 239 240 240 241 242 242 242 243 244 246 247 248 248 249 250 251 252 252
246 240 235 231 228 225 226 227 228 229 231 233 236 237 238 239 240 239 238 237 237 237 238 239 240 240 240 240 240 241 242 242 243 243 245 246 246 247 248 249 250 251 251 252
246 239 237 236 231 228 226 226 227 228 231 232 234 236 238 239 239 238 237 237 237 237 238 239 239 240 241 241 241 242 243 243 244 244 245 246 246 247 247 248 249 250 252 253
252 242 239 236 233 232 230 230 230 231 233 235 236 238 239 240 240 238 237 237 236 236 237 238 239 240 240 241 242 242 243 243 244 245 246 247 247 248 248 249 249 250 252 254
252 246 243 241 239 236 234 235 234 235 236 238 239 237 237 239 239 240 240 239 238 237 238 239 239 240 240 241 242 242 243 244 244 245 246 247 248 248 249 249 249 250 251 253
256 251 248 246 243 239 238 238 238 240 239 239 239 238 237 238 239 239 240 241 240 239 239 240 240 240 240 241 242 243 244 244 245 244 245 246 248 249 249 248 249 250 251 252
263 255 252 250 247 244 242 240 239 241 242 243 243 243 242 241 241 242 242 241 240 240 240 240 240 240 240 241 242 243 244 245 246 246 246 246 247 248 249 249 248 249 250 251
269 259 257 254 251 248 247 245 244 244 245 247 246 246 245 243 243 243 244 243 242 242 242 242 242 241 241 242 243 244 244 245 245 246 246 246 247 248 249 249 249 249 250 251
272 266 266 264 259 252 250 251 250 249 249 249 249 249 248 246 245 244 244 245 243 244 244 243 242 242 243 243 244 244 245 245 245 245 246 246 247 248 248 249 249 249 249 250
277 271 271 267 262 256 254 255 253 252 253 251 249 248 247 245 244 244 243 242 243 244 244 242 242 242 243 243 244 244 245 245 245 246 247 247 247 247 248 248 248 249 249 250
287 282 277 271 267 262 258 255 255 254 253 251 249 249 248 245 241 241 241 241 242 244 243 241 240 241 242 243 245 244 245 245 244 245 246 247 247 247 248 249 249 249 249 250
294 288 283 278 271 263 260 258 255 252 251 251 250 249 249 247 244 243 243 242 241 241 241 240 239 241 241 243 244 244 243 244 245 245 245 246 247 247 248 248 249 249 250 250
299 295 291 284 278 271 266 261 260 257 252 249 249 250 250 248 246 245 243 241 239 238 238 238 240 242 242 243 242 242 242 244 245 244 245 246 247 247 248 248 249 249 250 250
295 293 291 288 283 276 273 268 264 261 258 255 254 253 252 249 246 244 242 240 238 237 238 239 241 242 242 243 241 240 241 243 244 244 244 245 246 247 248 248 248 248 249 250
297 294 290 288 283 278 276 274 270 266 261 259 257 255 253 250 245 243 242 240 239 240 240 241 242 242 242 242 240 240 241 242 244 245 245 245 245 246 248 248 248 248 248 250
295 293 290 286 282 278 276 275 274 268 263 259 256 255 254 252 248 245 243 242 241 240 240 242 243 242 243 244 242 242 243 244 245 246 246 245 245 247 247 248 248 248 249 251
297 294 289 285 280 276 276 277 276 272 268 262 257 254 254 255 254 251 246 244 242 241 240 242 243 243 244 245 246 246 246 246 247 248 248 247 247 247 248 248 249 250 251 252
300 298 295 291 285 281 280 279 276 273 270 266 262 259 257 257 256 254 250 246 245 243 241 241 242 244 244 245 246 247 247 248 248 249 249 249 248 248 248 249 251 252 253 254
300 299 296 294 289 286 283 281 278 274 271 268 266 262 260 258 257 255 253 250 247 245 244 244 244 245 246 247 248 248 247 248 248 248 249 249 250 250 251 252 253 254 254 254
297 296 295 293 289 287 285 282 279 276 272 269 267 264 261 259 257 256 254 252 250 248 247 247 248 248 248 248 248 247 247 248 249 249 251 252 252 252 254 255 257 258 258 258
294 293 292 291 288 286 285 283 281 278 275 272 269 265 262 261 259 257 255 253 252 251 250 249 249 249 248 246 246 248 248 249 250 252 253 253 254 255 256 257 258 259 260 261
294 293 292 291 289 286 284 283 280 277 275 274 271 267 264 262 260 260 258 255 254 253 252 250 250 250 248 247 248 249 249 250 252 253 254 255 255 257 259 261 261 261 261 262
293 292 291 291 290 288 285 283 280 277 275 273 271 268 265 264 261 260 260 257 255 253 251 251 250 249 249 250 250 251 251 252 253 255 256 256 257 259 262 263 264 264 264 264
292 291 291 290 290 289 287 284 281 278 275 272 271 268 266 264 262 261 260 257 254 252 251 250 249 249 250 251 251 252 252 252 253 255 257 258 259 261 263 264 264 265 265 265
293 292 291 291 291 290 287 284 282 278 274 272 270 268 265 263 262 261 259 255 252 251 250 250 250 250 250 251 252 253 253 253 254 256 258 260 261 262 262 263 264 264 265 265
294 293 292 292 291 290 288 285 281 278 275 272 269 266 264 262 260 259 257 255 252 250 250 251 250 250 250 250 251 252 252 253 255 257 259 260 261 261 262 264 265 265 265 266
295 293 292 292 291 291 289 286 282 278 275 272 270 267 265 262 260 259 257 256 254 251 249 249 248 249 249 249 250 250 251 252 253 256 258 259 260 262 262 264 265 266 266 266
Height
5476 5478 5480 5484 5488 5493 5498 5502 5508 5512 5516 5521 5525 5530 5534 5539 5543 5548 5553 5558 5563 5568 5573 5578 5583 5588 5593 5598 5603 5608 5612 5617 5621 5625 5630 5633 5637 5641 5645 5648 5652 5655 5658 5662
5471 5473 5476 5478 5482 5486 5491 5495 5500 5504 5508 5513 5517 5521 5525 5529 5534 5538 5543 5548 5552 5557 5562 5567 5572 5577 5582 5586 5591 5595 5600 5604 5608 5612 5617 5621 5624 5628 5632 5636 5639 5643 5646 5649
5466 5468 5470 5474 5477 5480 5484 5488 5493 5497 5502 5505 5509 5513 5516 5520 5524 5528 5532 5537 5541 5546 5551 5555 5560 5565 5570 5575 5579 5583 5587 5591 5596 5600 5604 5608 5612 5616 5619 5623 5627 5630 5634 5637
5462 5465 5467 5471 5472 5475 5478 5481 5485 5490 5494 5497 5501 5505 5508 5511 5515 5518 5522 5527 5531 5535 5540 5544 5548 5553 5558 5562 5567 5571 5575 5579 5583 5587 5591 5595 5599 5603 5607 5611 5614 5618 5621 5624
5458 5460 5461 5465 5466 5469 5472 5476 5479 5483 5486 5489 5492 5496 5500 5502 5505 5509 5513 5517 5521 5525 5529 5533 5537 5542 5546 5551 5555 5559 5563 5567 5571 5575 5579 5583 5587 5591 5594 5598 5602 5605 5608 5611
5455 5456 5457 5460 5461 5463 5467 5470 5473 5475 5478 5481 5484 5488 5492 5494 5497 5500 5503 5507 5510 5514 5518 5523 5526 5530 5535 5539 5543 5548 5552 5556 5560 5563 5567 5571 5575 5578 5582 5586 5589 5593 5596 5599
5452 5453 5453 5455 5456 5459 5462 5464 5466 5468 5471 5474 5477 5480 5483 5485 5488 5491 5494 5497 5501 5504 5508 5512 5516 5520 5524 5528 5532 5536 5540 5544 5548 5552 5555 5559 5563 5566 5570 5573 5577 5581 5584 5587
5449 5450 5452 5451 5452 5454 5455 5457 5459 5461 5463 5466 5468 5471 5474 5476 5479 5482 5485 5488 5491 5495 5498 5502 5506 5510 5514 5518 5522 5525 5529 5533 5536 5540 5543 5547 5551 5554 5558 5561 5565 5568 5572 5575
5447 5448 5447 5447 5447 5448 5449 5451 5453 5455 5456 5458 5460 5463 5465 5468 5470 5473 5476 5479 5482 5485 5489 5493 5496 5500 5504 5508 5511 5515 5518 5522 5525 5528 5532 5536 5539 5543 5546 5549 5553 5556 5560 5563
5444 5444 5444 5444 5444 5444 5445 5446 5447 5448 5450 5451 5453 5455 5457 5459 5461 5464 5467 5470 5473 5476 5479 5483 5487 5490 5494 5497 5501 5505 5508 5511 5514 5518 5521 5524 5527 5531 5534 5538 5541 5544 5548 5551
5442 5442 5441 5441 5440 5440 5440 5441 5442 5442 5443 5445 5446 5447 5449 5451 5453 5455 5458 5461 5464 5467 5470 5474 5477 5481 5484 5488 5491 5494 5498 5501 5504 5507 5510 5513 5516 5519 5522 5526 5529 5532 5536 5539
5439 5438 5438 5437 5436 5436 5436 5436 5436 5437 5438 5439 5440 5441 5442 5443 5445 5447 5450 5453 5456 5459 5462 5465 5468 5471 5475 5478 5481 5484 5488 5491 5494 5497 5499 5502 5505 5508 5511 5514 5517 5520 5524 5527
5436 5435 5434 5433 5432 5432 5431 5431 5431 5432 5432 5433 5434 5435 5436 5437 5439 5440 5443 5445 5448 5451 5454 5457 5460 5463 5465 5468 5471 5475 5478 5481 5484 5487 5489 5492 5495 5498 5501 5504 5506 5509 5512 5515
5433 5432 5431 5430 5429 5428 5427 5427 5427 5427 5427 5428 5429 5429 5430 5431 5433 5434 5436 5438 5441 5444 5446 5449 5452 5454 5457 5459 5462 5465 5468 5471 5474 5477 5480 5482 5485 5488 5490 5493 5496 5498 5502 5504
5429 5428 5427 5425 5425 5424 5424 5423 5423 5423 5423 5423 5424 5424 5425 5426 5427 5428 5430 5432 5434 5437 5439 5442 5444 5447 5449 5451 5454 5457 5459 5462 5465 5467 5470 5472 5475 5478 5480 5483 5485 5488 5491 5493
5426 5424 5423 5422 5421 5420 5420 5419 5419 5418 5418 5418 5419 5419 5420 5421 5422 5423 5424 5426 5428 5430 5432 5435 5437 5440 5442 5444 5446 5448 5451 5453 5455 5458 5460 5463 5465 5468 5471 5473 5475 5478 5481 5483
5422 5420 5419 5417 5417 5416 5415 5415 5414 5414 5413 5413 5414 5415 5415 5416 5417 5418 5419 5420 5422 5424 5426 5428 5430 5433 5435 5437 5439 5441 5443 5445 5447 5449 5451 5453 5456 5458 5461 5463 5466 5468 5470 5472
5417 5416 5414 5413 5412 5411 5411 5410 5409 5409 5409 5409 5409 5410 5410 5411 5412 5413 5414 5415 5417 5418 5420 5422 5424 5426 5428 5430 5432 5434 5435 5437 5439 5441 5443 5445 5447 5449 5451 5454 5456 5458 5460 5462
5413 5412 5410 5409 5407 5406 5406 5405 5405 5404 5404 5404 5405 5405 5405 5406 5406 5407 5408 5410 5411 5412 5414 5416 5417 5419 5421 5422 5424 5426 5428 5430 5431 5433 5435 5437 5438 5440 5442 5444 5446 5448 5449 5451
5409 5407 5406 5404 5403 5402 5401 5400 5400 5399 5399 5399 5399 5399 5400 5400 5401 5402 5402 5403 5405 5406 5408 5409 5411 5412 5414 5416 5417 5419 5421 5422 5424 5425 5427 5429 5430 5432 5433 5435 5436 5438 5439 5440
5404 5402 5401 5399 5398 5397 5396 5395 5394 5393 5393 5393 5393 5393 5394 5394 5395 5395 5396 5397 5398 5399 5401 5402 5404 5405 5407 5408 5410 5412 5413 5415 5416 5418 5419 5421 5422 5423 5425 5426 5427 5428 5429 5430
5399 5397 5395 5394 5392 5391 5390 5389 5388 5388 5387 5387 5386 5387 5387 5388 5388 5389 5389 5390 5391 5392 5393 5395 5396 5398 5400 5401 5403 5404 5406 5407 5409 5410 5411 5412 5414 5415 5416 5416 5417 5418 5419 5419
5393 5391 5389 5388 5386 5385 5384 5383 5382 5381 5381 5381 5380 5380 5380 5381 5381 5382 5383 5383 5384 5385 5386 5388 5389 5391 5392 5394 5395 5397 5398 5399 5401 5402 5403 5404 5405 5406 5407 5407 5408 5408 5408 5409
5386 5385 5383 5381 5380 5379 5378 5376 5375 5375 5374 5374 5374 5374 5374 5374 5374 5375 5376 5376 5377 5378 5379 5380 5382 5384 5385 5387 5388 5389 5390 5392 5393 5394 5395 5396 5397 5398 5398 5398 5399 5399 5399 5399
5380 5378 5377 5375 5374 5372 5371 5369 5369 5368 5367 5367 5367 5367 5367 5368 5368 5368 5369 5369 5370 5371 5372 5374 5375 5376 5378 5379 5381 5382 5383 5384 5385 5386 5387 5388 5389 5389 5390 5390 5390 5390 5390 5390
5374 5372 5370 5369 5367 5366 5364 5363 5362 5361 5361 5360 5360 5360 5361 5361 5361 5362 5362 5363 5364 5365 5366 5367 5368 5370 5371 5372 5374 5375 5376 5377 5378 5379 5380 5380 5381 5382 5382 5382 5382 5382 5382 5382
5367 5366 5364 5362 5361 5359 5358 5356 5355 5354 5354 5353 5353 5353 5354 5354 5355 5355 5356 5356 5357 5358 5359 5360 5362 5363 5364 5365 5367 5368 5369 5370 5371 5372 5373 5373 5374 5374 5375 5375 5375 5375 5375 5375